User: anonymous   Login
Location: Unspecified
(0.0000°N, 0.0000°E)
Time: 21:53:03
(UTC+00:00)
Language:

STARLINK-35217 - Orbit

View from above orbital plane
View from above orbital plane
View from above satellite
View from above satellite

Ground track
Ground track

The orbit is defined by the following mean orbital elements,

1 65627U          26145.47633042 +.00000000 +00000-0 +82491-3 0 00003
2 65627  53.1591 310.6809 0001118  74.7301 285.3823 15.30212171    06
Epoch (UTC): 25 May 2026 11:25:54
Eccentricity: 0.0001118
inclination: 53.1591°
perigee height: 474 km
apogee height: 476 km
right ascension of ascending node: 310.6809°
argument of perigee: 74.7301°
revolutions per day: 15.30212171
mean anomaly at epoch: 285.3823°

The dashed part of the orbit path shows where the satellite is in the earth's shadow,  

DLR